User: anonymous   Login
Location: Caserta
(41.0670°N, 14.3330°E)
Time: 15:32:31
(UTC+01:00)
Language:

STARLINK-1329 - Orbit

View from above orbital plane
View from above orbital plane
View from above satellite
View from above satellite

Ground track
Ground track

The orbit data is extracted from the following two-line orbital elements,

1 45531U 20025A   21020.12468594  .00027713  00000-0  18743-2 0  9996
2 45531  53.0091 241.8532 0003001  69.9111 290.2200 15.06353465 41956
Epoch (UTC): 20 January 2021 02:59:32
Eccentricity: 0.0003001
inclination: 53.0091°
perigee height: 545 km
apogee height: 549 km
right ascension of ascending node: 241.8532°
argument of perigee: 69.9111°
revolutions per day: 15.06353465
mean anomaly at epoch: 290.2200°
orbit number at epoch: 4195

The dashed part of the orbit path shows where the satellite is in the earth's shadow,  

DLR